TimeMDT,TemperatureF,Dew PointF,Humidity,Sea Level PressureIn,VisibilityMPH,Wind Direction,Wind SpeedMPH,Gust SpeedMPH,PrecipitationIn,Events,Conditions,WindDirDegrees,DateUTC
12:53 AM,63.0,34.0,34,29.91,10.0,Calm,Calm,-,N/A,,Clear,0,2012-07-30 06:53:00
1:53 AM,55.9,39.9,55,29.91,10.0,North,5.8,-,N/A,,Clear,350,2012-07-30 07:53:00
2:53 AM,55.0,37.9,53,29.91,10.0,ENE,3.5,-,N/A,,Clear,60,2012-07-30 08:53:00
3:53 AM,55.0,37.9,53,29.91,10.0,NNE,4.6,-,N/A,,Clear,20,2012-07-30 09:53:00
4:53 AM,52.0,37.9,59,29.92,10.0,Calm,Calm,-,N/A,,Clear,0,2012-07-30 10:53:00
5:53 AM,51.1,36.0,56,29.94,10.0,Calm,Calm,-,N/A,,Clear,0,2012-07-30 11:53:00
6:53 AM,51.1,37.9,61,29.96,10.0,Calm,Calm,-,N/A,,Clear,0,2012-07-30 12:53:00
7:53 AM,62.1,39.0,43,29.95,10.0,Calm,Calm,-,N/A,,Clear,0,2012-07-30 13:53:00
8:53 AM,71.1,39.0,31,29.95,10.0,Calm,Calm,-,N/A,,Clear,0,2012-07-30 14:53:00
9:53 AM,80.1,41.0,25,29.95,10.0,Calm,Calm,-,N/A,,Clear,0,2012-07-30 15:53:00
10:53 AM,84.0,50.0,31,29.94,10.0,North,9.2,-,N/A,,Clear,350,2012-07-30 16:53:00
11:53 AM,91.0,43.0,19,29.92,10.0,Variable,4.6,-,N/A,,Partly Cloudy,0,2012-07-30 17:53:00
12:53 PM,91.9,51.1,25,29.91,10.0,NW,11.5,-,N/A,,Partly Cloudy,320,2012-07-30 18:53:00
1:53 PM,93.9,44.1,18,29.91,10.0,Variable,3.5,-,N/A,,Partly Cloudy,0,2012-07-30 19:53:00
2:53 PM,97.0,45.0,17,29.88,10.0,NW,10.4,-,N/A,,Scattered Clouds,320,2012-07-30 20:53:00
3:53 PM,98.1,39.0,13,29.86,10.0,WNW,8.1,-,N/A,,Scattered Clouds,290,2012-07-30 21:53:00
4:53 PM,99.0,25.0,7,29.85,10.0,NW,10.4,-,N/A,,Partly Cloudy,310,2012-07-30 22:53:00
5:53 PM,98.1,25.0,7,29.84,10.0,NW,8.1,-,N/A,,Partly Cloudy,320,2012-07-30 23:53:00
6:53 PM,97.0,26.1,8,29.83,10.0,WNW,8.1,-,N/A,,Partly Cloudy,300,2012-07-31 00:53:00
7:53 PM,93.0,35.1,13,29.82,10.0,Calm,Calm,-,N/A,,Partly Cloudy,0,2012-07-31 01:53:00
8:53 PM,82.0,37.9,21,29.83,10.0,South,3.5,-,N/A,,Clear,170,2012-07-31 02:53:00
9:53 PM,73.9,32.0,21,29.86,10.0,South,5.8,-,N/A,,Clear,180,2012-07-31 03:53:00
10:53 PM,73.0,28.0,19,29.86,10.0,SSW,5.8,-,N/A,,Clear,200,2012-07-31 04:53:00
11:53 PM,73.0,28.9,20,29.86,10.0,SW,6.9,-,N/A,,Clear,230,2012-07-31 05:53:00